Погода в Шаосине

Китай     29°59′54″N   120°34′55″E
В апреле 2022 года жителям России запретили посещать сайт meteo.paraplan.net по решению Генеральной прокуратуры. Аудитория сайта уменьшилась в 10 раз. Владельцы сайта не видят смысла в поддержке погодного сервера в таких условиях. Сайт будет закрыт в октябре.
темп.,
°C
ветер,
м/с
пор.,
м/с
влажн.,
%
обл.,
%
осадки,
мм/ч
давл.,
гПа
погр.,
м
5 октября, ср
ср523:00+18ссв4675100 0.0 1023753
02:00+17ссв3575100 0.1 1023764
05:00+18ссв3677100 0.0 1022706
08:00+18ссв4676100 0.0 1024876
11:00+19ссв3467100 0.0 10231079
14:00+20св3464100 0.0 10211225
17:00+19всв2467100 0.0 1021669
20:00+19всв2674100 0.0 1022711
6 октября, чт
чт623:00+18св3576100 0.1 1022640
02:00+18св3681100 0.1 1021632
05:00+16с3687100 0.3 1022676
08:00+16ссв2689100 0.7 1023615
11:00+16с2589100 0.5 1023602
14:00+16с2590100 1.0 1021548
17:00+16с2593100 1.0 1022511
20:00+16с2591100 1.4 1023456
7 октября, пт
пт723:00+16с2592100 0.4 1023461
02:00+15с2695100 1.6 1023450
05:00+15с2695100 0.8 1023473
08:00+15с2596100 2.4 1024439
11:00+15с2695100 1.2 1024517
14:00+15с2596100 2.4 1023459
17:00+15с2595100 1.9 1023442
20:00+14с1496100 2.9 1024346
8 октября, сб
сб823:00+14ссз1396100 0.8 1024265
02:00+15с2497100 1.9 1023306
05:00+14ссв2496100 0.9 1023331
08:00+15с1297100 2.1 1023186
11:00+15сз0197100 0.9 1022129
14:00+16сз1196100 1.2 1021131
17:00+15с1397100 0.6 1021179
20:00+15ссз2498100 2.3 1022348
9 октября, вс
вс923:00+15ссз1398100 1.3 1022234
02:00+15з1198100 2.9 1020140
05:00+15зсз2397100 0.4 1021284
08:00+15сз1396100 0.6 1023241
11:00+15зсз129298 0.0 1023273
14:00+18ссз1378100 0.1 1021826
17:00+17ссз128894 0.3 1022124
20:00+17сз1388100 0.5 1023134